Home > Time Zones > World Clock > Weather > Iran > Tabriz > Past weeks

Flag for Iran Weather past 2 weeks in Tabriz, Iran

Now
73 °F

Passing clouds.


Feels Like: 76 °F
Forecast: 51 / 84 °F
Wind: 7 mph from Southwest

Location: Tabriz Airport

Current Time: Sep 16, 2014 at 10:46:50 PM

Latest Report: Sep 16, 2014 at 9:30 PM


Visibility: N/A

Pressure: 29.89 "Hg

Humidity: 27%

Dew point: 37 °F

Location of TabrizLocation

Historic Weather in Tabriz — Graph

°F

Tabriz temperature yesterday

Maximum temperature yesterday: 84 °F (at 3:30 PM)
Minimum temperature yesterday: 61 °F (at 8:00 AM)
Average temperature yesterday: 74 °F

Past Weeks' High & Low Weather Summary

 TemperatureHumidityPressure
High95 °F (Sep 2, 2:30 PM)64% (Sep 15, 7:30 AM)30.33 "Hg (Sep 15, 7:30 AM)
Low59 °F (Sep 9, 6:30 AM)7% (Sep 8, 7:30 PM)29.83 "Hg (Sep 5, 3:30 PM)
Average79 °F32%29.98 "Hg
* Reported Sep 1 9:30 PM — Sep 16 9:30 PM, Tabriz, Weather by CustomWeather, © 2014

Note: Actual official high and low records may vary slightly from our data, if they occured in-between our weather recording intervals... More about our weather records

Advertising

Tabriz weather history for previous 24 hours

 ConditionsComfort  
Time TempWeatherWind HumidityBarometerVisibility
9:30 PM
Sep 16
73 °FPassing clouds.7 mph27%29.89 "HgN/A
8:30 PM75 °FPassing clouds.No wind29%29.86 "HgN/A
7:30 PM79 °FPassing clouds.9 mph23%29.86 "HgN/A
7:00 PM81 °FPassing clouds.12 mph21%29.86 "HgN/A
6:30 PM82 °FPassing clouds.9 mph21%29.86 "HgN/A
5:50 PM82 °FPassing clouds.16 mph20%29.86 "HgN/A
5:30 PM82 °FPassing clouds.12 mph20%29.89 "HgN/A
5:00 PM82 °FPassing clouds.14 mph20%29.89 "HgN/A
4:00 PM82 °FPassing clouds.9 mph21%29.89 "HgN/A
3:30 PM84 °FPassing clouds.18 mph22%29.89 "HgN/A
3:00 PM82 °FPassing clouds.14 mph23%29.92 "HgN/A
2:30 PM82 °FPassing clouds.16 mph23%29.92 "HgN/A
2:00 PM82 °FPassing clouds.5 mph25%29.92 "Hg5 mi
1:30 PM81 °FPassing clouds.9 mph26%29.92 "Hg5 mi
1:00 PM81 °FPassing clouds.7 mph28%29.95 "Hg4 mi
12:30 PM79 °FPassing clouds.12 mph32%29.95 "Hg4 mi
12:00 PM77 °FPassing clouds.7 mph34%29.98 "Hg4 mi
11:30 AM75 °FPassing clouds.5 mph36%29.98 "Hg4 mi
11:00 AM73 °FClear.5 mph41%29.98 "Hg4 mi
10:30 AM73 °FClear.7 mph44%29.98 "Hg4 mi
10:00 AM72 °FClear.5 mph50%29.98 "Hg5 mi
9:30 AM68 °FClear.No wind53%29.98 "Hg5 mi
9:00 AM68 °FPassing clouds.No wind53%29.98 "Hg6 mi
8:30 AM64 °FPassing clouds.2 mph56%29.98 "HgN/A
8:00 AM63 °FPassing clouds.No wind59%29.98 "HgN/A
6:30 AM61 °FClear.5 mph55%29.98 "Hg10 mi
5:30 AM64 °FClear.5 mph56%29.95 "Hg10 mi
4:30 AM64 °FClear.No wind56%29.95 "Hg10 mi
3:30 AM64 °FClear.5 mph52%29.95 "Hg10 mi
2:30 AM66 °FClear.5 mph52%29.95 "Hg10 mi
1:30 AM66 °FClear.No wind49%29.95 "Hg10 mi
12:30 AM70 °FClear.12 mph40%29.95 "Hg10 mi
11:30 PM
Sep 15
70 °FClear.No wind38%29.95 "Hg10 mi
10:30 PM73 °FClear.9 mph31%29.95 "Hg10 mi
Weather by CustomWeather, © 2014

See weather overviewHow to use our weather pages